Lawton, OK

12:03 PM CDT on September 22, 2017 (GMT -0500)
Lawton-Fort Sill Regional

Weather History for KLAW - February, 2014

Change the Weather History Date:

Sunday, February 23, 2014

  Actual Average Record
Temperature  
Mean Temperature 47 °F -  
Max Temperature 57 °F 59 °F 87 °F (2017)
Min Temperature 37 °F 33 °F 18 °F (1965)
Degree Days  
Heating Degree Days 18    
Moisture  
Dew Point 29 °F    
Average Humidity 52    
Maximum Humidity 76    
Minimum Humidity 31    
Precipitation  
Precipitation 0.00 in - - ()
Sea Level Pressure  
Sea Level Pressure 30.04 in    
Wind  
Wind Speed 13 mph (NNE)    
Max Wind Speed 30 mph    
Max Gust Speed 40 mph    
Visibility 10 miles    
Events      
Averages and records for this station are not official NWS values.
T = Trace of Precipitation, MM = Missing Value Source: NWS Daily Summary

Daily Weather History Graph

Daily Weather History Graph

Search for Another Location

Airport or City:

Trip Planner

Search our weather history database for the weather conditions in past years. The results will help you decide how hot, cold, wet, or windy it might be!

Date:

Astronomy

Feb. 23, 2014 Rise Set
Actual Time 7:10 AM CST 6:24 PM CST
Civil Twilight 6:44 AM CST 6:49 PM CST
Nautical Twilight 6:15 AM CST 7:19 PM CST
Astronomical Twilight 5:46 AM CST 7:48 PM CST
Moon 2:02 AM CST (2/23) 12:35 PM CST (2/23)
Length of Visible Light 12h 05m
Length of Day
11h 14m
Last Quarter, 38% of the Moon is Illuminated
Feb 23
Last Quarter
Mar 1
New
Mar 8
First Quarter
Mar 16
Full
Mar 23
Last Quarter

Hourly Weather History & Observations

Time (CST) Temp. Windchill Dew Point Humidity Pressure Visibility Wind Dir Wind Speed Gust Speed Precip Events Conditions
12:53 AM 48.9 °F - 30.9 °F 50% 29.80 in 10.0 mi East 8.1 mph - N/A   Clear
1:53 AM 46.9 °F - 34.0 °F 61% 29.81 in 10.0 mi NNE 5.8 mph - N/A   Clear
2:53 AM 44.1 °F 41.5 °F 36.0 °F 73% 29.78 in 10.0 mi NNE 4.6 mph - N/A   Clear
3:53 AM 41.0 °F 36.4 °F 34.0 °F 76% 29.81 in 10.0 mi North 6.9 mph - N/A   Clear
4:53 AM 45.0 °F 38.5 °F 33.1 °F 63% 29.84 in 10.0 mi North 13.8 mph - N/A   Clear
5:53 AM 43.0 °F 34.8 °F 30.9 °F 62% 29.90 in 10.0 mi North 18.4 mph - N/A   Clear
6:53 AM 41.0 °F 31.1 °F 30.0 °F 65% 29.94 in 10.0 mi North 23.0 mph 27.6 mph N/A   Clear
7:53 AM 37.9 °F 27.1 °F 30.9 °F 76% 29.99 in 10.0 mi North 23.0 mph 32.2 mph N/A   Clear
8:53 AM 39.0 °F 27.2 °F 28.9 °F 67% 30.04 in 10.0 mi NNE 29.9 mph 40.3 mph N/A   Clear
9:53 AM 43.0 °F 35.4 °F 28.9 °F 58% 30.07 in 10.0 mi NNE 16.1 mph - N/A   Clear
10:53 AM 46.9 °F - 30.0 °F 52% 30.10 in 10.0 mi North 16.1 mph - N/A   Clear
11:53 AM 48.9 °F - 30.0 °F 48% 30.12 in 10.0 mi North 17.3 mph 23.0 mph N/A   Clear
12:53 PM 52.0 °F - 30.9 °F 45% 30.11 in 10.0 mi North 18.4 mph 23.0 mph N/A   Clear
1:53 PM 55.0 °F - 30.0 °F 38% 30.10 in 10.0 mi North 17.3 mph 25.3 mph N/A   Clear
2:53 PM 57.9 °F - 28.9 °F 33% 30.10 in 10.0 mi NNE 17.3 mph 24.2 mph N/A   Clear
3:53 PM 57.9 °F - 27.0 °F 31% 30.10 in 10.0 mi North 19.6 mph 25.3 mph N/A   Clear
4:53 PM 55.9 °F - 26.1 °F 32% 30.11 in 10.0 mi NNE 16.1 mph - N/A   Clear
5:53 PM 53.1 °F - 26.1 °F 35% 30.12 in 10.0 mi NNE 17.3 mph - N/A   Clear
6:53 PM 48.9 °F - 25.0 °F 39% 30.15 in 10.0 mi NNE 10.4 mph - N/A   Clear
7:53 PM 46.9 °F - 24.1 °F 41% 30.16 in 10.0 mi NNE 11.5 mph - N/A   Clear
8:53 PM 45.0 °F 38.9 °F 24.1 °F 44% 30.18 in 10.0 mi NNE 12.7 mph - N/A   Clear
9:53 PM 43.0 °F 36.4 °F 24.1 °F 47% 30.18 in 10.0 mi NNE 12.7 mph - N/A   Clear
10:53 PM 39.9 °F 32.9 °F 23.0 °F 51% 30.19 in 10.0 mi NNE 11.5 mph - N/A   Clear
11:53 PM 37.9 °F 30.9 °F 23.0 °F 55% 30.19 in 10.0 mi NNE 10.4 mph - N/A   Clear